SCP
0 0 0 0 0 0 0 0 0 0 0 0 0 0 0 0 0 0 0 0 0 0
0 0 0 0 0 0 0 0 0 0 0 0 0 0 0 0 0 0 0 0 0 0
0 0 0 0 0 0 0 0 0 0 0 0 0 0 0 0 0 0 0 0 0 0
0 0 0 0 0 0 0 0 0 0 0 0 0 0 0 0 0 0 0 0 0 0
0 0 0 0 0 0 0 0 0 0 0 0 0 0 0 0 0 0 0 0 0 0
0 0 0 0 0 0 0 0 0 0 0 0 0 0 0 0 0 0 0 0 0 0
0 0 0 0 0 0 0 0 0 0 0 0 0 0 0 0 0 0 0 0 0 0
0 0 0 0 0 0 0 0 0 0 0 0 0 0 0 0 0 0 0 0 0 0
0 0 0 0 0 0 0 0 0 0 0 0 0 0 0 0 0 0 0 0 0 0
0 0 0 0 0 0 0 0 0 0 0 0 0 0 0 0 0 0 0 0 0 0
0 0 0 0 0 0 0 0 0 0 0 0 0 0 0 0 0 0 0 0 0 0
0 0 0 0 0 0 0 0 0 0 0 0 0 0 0 0 0 0 0 0 0 0
0 0 0 0 0 0 0 0 0 0 0 0 0 -0 0 0 0 0 0 0 0 0
0 0 0 0 0 0 0 0 0 0 0 0 0 0 -0 -0 0 0 0 0 0 0
Wind_Speed_500mb
50 43 40 40 43 43 47 49 52 60 67 73 78 77 76 79 81 81 80 81 77 81
51 44 41 44 42 42 47 53 61 68 74 78 79 76 75 78 80 79 77 81 79 78
52 44 42 40 40 43 49 58 64 71 76 77 75 73 72 74 75 75 77 79 80 84
52 46 39 36 40 46 52 60 66 73 74 73 72 72 73 76 77 78 80 76 78 92
53 43 38 38 41 47 53 59 67 71 70 69 69 71 76 80 80 82 84 82 76 88
51 43 39 37 41 46 51 58 64 66 67 69 71 76 79 81 82 84 81 76 74 79
52 42 38 36 38 42 50 58 59 62 66 68 72 76 79 79 80 76 73 73 79 82
48 40 36 35 36 41 49 53 57 62 64 67 72 75 78 77 71 72 78 77 78 80
45 38 34 34 36 42 48 50 54 59 66 70 75 77 78 62 72 72 76 87 86 77
44 38 34 33 36 41 46 49 53 58 64 69 72 74 72 64 69 76 79 81 90 88
45 37 33 31 33 38 45 49 53 57 60 66 67 71 70 64 74 75 76 80 87 87
42 34 28 27 30 38 45 48 49 55 63 66 64 70 60 64 77 78 89 88 85 84
36 29 23 21 29 38 45 46 49 54 59 62 69 68 58 64 74 89 92 92 87 77
33 26 20 19 27 37 42 43 47 54 55 59 59 65 58 63 76 86 94 92 94 86
Wind_Direction_500mb
240 248 262 273 278 290 300 307 307 305 305 304 300 299 298 296 293 291 286 283 280 277
240 247 258 269 283 296 301 303 306 307 306 304 304 302 300 295 292 289 285 284 280 273
239 247 259 273 287 294 299 303 307 307 308 308 308 306 301 298 294 290 288 285 280 278
239 247 259 274 285 294 302 307 309 309 310 311 310 306 302 298 296 293 290 284 278 277
236 245 258 271 284 296 304 310 311 312 313 313 313 311 307 303 300 297 292 289 281 277
233 242 256 273 287 300 308 312 313 314 316 317 316 313 310 306 304 299 294 292 287 283
230 240 256 269 287 302 308 311 314 316 314 314 315 314 312 308 305 302 296 291 287 284
229 241 256 276 292 301 306 310 313 313 315 317 317 317 314 311 307 301 299 296 291 287
227 241 258 277 290 299 306 310 313 317 319 320 320 321 318 308 306 301 301 300 296 290
227 240 259 275 287 300 308 312 318 319 318 318 320 322 320 310 308 306 304 299 296 292
222 237 256 273 290 304 309 315 319 316 316 317 323 324 323 316 310 308 307 302 300 294
221 236 255 276 297 304 310 315 317 319 319 320 326 334 324 318 315 314 307 306 302 298
227 239 251 280 301 309 313 319 321 320 320 323 337 339 322 322 318 313 309 308 301 295
224 238 259 287 306 312 315 321 322 319 325 338 336 335 326 326 321 316 312 309 306 301
Wind_Speed_850mb
50 43 40 40 43 43 47 49 52 60 67 73 78 77 76 79 81 81 80 81 77 81
51 44 41 44 42 42 47 53 61 68 74 78 79 76 75 78 80 79 77 81 79 78
52 44 42 40 40 43 49 58 64 71 76 77 75 73 72 74 75 75 77 79 80 84
52 46 39 36 40 46 52 60 66 73 74 73 72 72 73 76 77 78 80 76 78 92
53 43 38 38 41 47 53 59 67 71 70 69 69 71 76 80 80 82 84 82 76 88
51 43 39 37 41 46 51 58 64 66 67 69 71 76 79 81 82 84 81 76 74 79
52 42 38 36 38 42 50 58 59 62 66 68 72 76 79 79 80 76 73 73 79 82
48 40 36 35 36 41 49 53 57 62 64 67 72 75 78 77 71 72 78 77 78 80
45 38 34 34 36 42 48 50 54 59 66 70 75 77 78 62 72 72 76 87 86 77
44 38 34 33 36 41 46 49 53 58 64 69 72 74 72 64 69 76 79 81 90 88
45 37 33 31 33 38 45 49 53 57 60 66 67 71 70 64 74 75 76 80 87 87
42 34 28 27 30 38 45 48 49 55 63 66 64 70 60 64 77 78 89 88 85 84
36 29 23 21 29 38 45 46 49 54 59 62 69 68 58 64 74 89 92 92 87 77
33 26 20 19 27 37 42 43 47 54 55 59 59 65 58 63 76 86 94 92 94 86
Wind_Direction_850mb
240 248 262 273 278 290 300 307 307 305 305 304 300 299 298 296 293 291 286 283 280 277
240 247 258 269 283 296 301 303 306 307 306 304 304 302 300 295 292 289 285 284 280 273
239 247 259 273 287 294 299 303 307 307 308 308 308 306 301 298 294 290 288 285 280 278
239 247 259 274 285 294 302 307 309 309 310 311 310 306 302 298 296 293 290 284 278 277
236 245 258 271 284 296 304 310 311 312 313 313 313 311 307 303 300 297 292 289 281 277
233 242 256 273 287 300 308 312 313 314 316 317 316 313 310 306 304 299 294 292 287 283
230 240 256 269 287 302 308 311 314 316 314 314 315 314 312 308 305 302 296 291 287 284
229 241 256 276 292 301 306 310 313 313 315 317 317 317 314 311 307 301 299 296 291 287
227 241 258 277 290 299 306 310 313 317 319 320 320 321 318 308 306 301 301 300 296 290
227 240 259 275 287 300 308 312 318 319 318 318 320 322 320 310 308 306 304 299 296 292
222 237 256 273 290 304 309 315 319 316 316 317 323 324 323 316 310 308 307 302 300 294
221 236 255 276 297 304 310 315 317 319 319 320 326 334 324 318 315 314 307 306 302 298
227 239 251 280 301 309 313 319 321 320 320 323 337 339 322 322 318 313 309 308 301 295
224 238 259 287 306 312 315 321 322 319 325 338 336 335 326 326 321 316 312 309 306 301